Tracking 19484 objects as of 19-Jan-2019
HD Live streaming from Space Station
objects crossing your sky now

COSMOS 1719

Track COSMOS 1719 now!
10-day predictions
COSMOS 1719 is classified as:


NORAD ID: 16452
Int'l Code: 1986-002D
Perigee: 1,462.4 km
Apogee: 1,490.6 km
Inclination: 74.0 °
Period: 115.3 minutes
Semi major axis: 7847 km
RCS: 0.7101 m2 (medium)
Launch date: January 9, 1986
Source: Commonwealth of Independent States (former USSR) (CIS)
Launch site: PLESETSK MISSILE AND SPACE COMPLEX (PKMTR)
aabbcc
Your satellite tracking list
Your tracking list is empty




NASA's NSSDC Master Catalog

Two Line Element Set (TLE):
1 16452U 86002D   19018.24207141 -.00000024  00000-0 -55895-4 0  9998
2 16452  73.9912 326.8768 0017978  98.7374   5.1424 12.48836044505748
Source of the keplerian elements: AFSPC